EW0199 Weather Reports


Display with metric or nautical units.
time (UTC)temp
F
wind
direction
speed
MPH
gust
MPH
rain 1hr
in
rain 24hr
in
rain mn
in
humidity
%
barometer
mb
20260506073336 30 324 0.0 0.0 0.00 0.00 0.00 84 1009.9
20260506072859 29 324 0.0 0.0 0.00 0.00 0.00 85 1009.9
20260506072343 29 324 0.0 0.0 0.00 0.00 0.00 85 1010.0
20260506071916 29 324 0.0 0.0 0.00 0.00 0.00 85 1009.9
20260506071439 29 324 0.0 0.0 0.00 0.00 0.00 84 1009.9
20260506070838 29 324 0.0 0.0 0.00 0.00 0.00 84 1009.8
20260506070348 29 324 0.0 0.0 0.00 0.00 0.00 83 1009.8
20260506062326 30 324 0.0 0.0 0.00 0.00 0.00 76 1009.9
20260506061832 30 324 0.0 0.0 0.00 0.00 0.00 77 1009.9
20260506061338 30 324 0.0 0.0 0.00 0.00 0.00 75 1010.0
20260506060844 31 324 0.0 0.0 0.00 0.00 0.00 73 1010.0
20260506060349 31 324 0.0 0.0 0.00 0.00 0.00 72 1009.9
20260506051336 36 304 0.0 0.0 0.00 0.00 0.00 65 1009.7
20260506050842 36 305 0.0 1.0 0.00 0.00 0.00 65 1009.8
20260506050332 36 305 0.0 3.0 0.00 0.00 0.00 67 1009.8
20260506044851 34 27 0.0 1.0 0.00 0.00 0.00 68 1009.6
20260506044411 33 333 0.0 3.0 0.00 0.00 0.00 71 1009.6
20260506043913 32 111 0.0 3.0 0.00 0.00 0.00 73 1009.5
20260506043420 31 348 0.0 1.0 0.00 0.00 0.00 75 1009.5
20260506042836 30 354 0.0 1.0 0.00 0.00 0.00 79 1009.4
20260506042403 29 354 0.0 1.0 0.00 0.00 0.00 80 1009.4
20260506041925 29 352 0.0 0.0 0.00 0.00 0.00 80 1009.3
20260506041328 29 352 0.0 1.0 0.00 0.00 0.00 79 1009.2
20260506040853 29 352 0.0 1.0 0.00 0.00 0.00 78 1009.2
20260506040420 29 354 0.0 0.0 0.00 0.00 0.00 79 1009.1
20260506035840 29 313 0.0 0.0 0.00 0.00 0.00 78 1009.1
20260506035407 29 313 0.0 0.0 0.00 0.00 0.00 78 1009.1
20260506034835 29 313 0.0 0.0 0.00 0.00 0.00 80 1009.0
20260506034340 30 313 0.0 0.0 0.00 0.00 0.00 80 1008.9
20260506033848 30 313 0.0 0.0 0.00 0.00 0.00 79 1009.0
20260506033354 30 313 0.0 0.0 0.00 0.00 0.00 76 1009.1
20260506032903 30 313 0.0 0.0 0.00 0.00 0.00 77 1009.0
20260506032422 30 313 0.0 0.0 0.00 0.00 0.00 76 1009.0
20260506031827 31 313 0.0 0.0 0.00 0.00 0.00 74 1009.0
20260506031355 31 313 0.0 0.0 0.00 0.00 0.00 74 1008.9
20260506030837 31 313 0.0 0.0 0.00 0.00 0.00 73 1008.9
20260506030349 31 313 0.0 0.0 0.00 0.00 0.00 75 1008.9
20260506025911 32 313 0.0 0.0 0.00 0.00 0.00 72 1008.9
20260506025419 32 313 0.0 0.0 0.00 0.00 0.00 72 1008.8
20260506024939 32 313 0.0 0.0 0.00 0.00 0.00 74 1008.8
20260506024419 32 313 0.0 0.0 0.00 0.00 0.00 72 1008.7
20260506023843 33 313 0.0 0.0 0.00 0.00 0.00 70 1008.7
20260506023403 33 313 0.0 0.0 0.00 0.00 0.00 68 1008.7
20260506022912 33 313 0.0 0.0 0.00 0.00 0.00 68 1008.6
20260506022328 34 312 0.0 0.0 0.00 0.00 0.00 68 1008.5
20260506021853 34 313 0.0 0.0 0.00 0.00 0.00 68 1008.6
20260506021418 35 313 0.0 0.0 0.00 0.00 0.00 66 1008.5
20260506020859 36 313 0.0 0.0 0.00 0.00 0.00 64 1008.5
20260506020342 36 313 0.0 0.0 0.00 0.00 0.00 67 1008.4
20260506015904 37 313 0.0 0.0 0.00 0.00 0.00 66 1008.4
20260506015345 38 313 0.0 0.0 0.00 0.00 0.00 62 1008.3
20260506014829 38 313 0.0 0.0 0.00 0.00 0.00 60 1008.3
20260506014411 39 313 0.0 0.0 0.00 0.00 0.00 57 1008.3
20260506013831 40 312 0.0 0.0 0.00 0.00 0.00 54 1008.2
20260506013413 40 312 0.0 0.0 0.00 0.00 0.00 54 1008.0
20260506012839 41 313 0.0 1.0 0.00 0.00 0.00 51 1008.1
20260506012421 41 312 0.0 1.0 0.00 0.00 0.00 48 1008.0
20260506011827 42 309 0.0 2.0 0.00 0.00 0.00 47 1007.9
20260506011351 42 304 0.0 5.0 0.00 0.00 0.00 46 1007.9
20260506010850 43 337 1.0 4.0 0.00 0.00 0.00 44 1007.9
20260506010414 43 340 0.0 9.0 0.00 0.00 0.00 45 1007.9
20260506005854 44 328 2.0 9.0 0.00 0.00 0.00 44 1007.9
20260506005338 44 340 2.0 7.0 0.00 0.00 0.00 43 1007.9
20260506004924 45 321 3.0 6.0 0.00 0.00 0.00 43 1008.0
20260506004343 45 320 2.0 8.0 0.00 0.00 0.00 43 1007.9
20260506003903 45 306 3.0 8.0 0.00 0.00 0.00 43 1007.8
20260506003346 45 310 1.0 6.0 0.00 0.00 0.00 43 1007.8
20260506002830 45 272 1.0 10.0 0.00 0.00 0.00 44 1007.8
20260506002412 45 325 5.0 10.0 0.00 0.00 0.00 43 1007.8
20260506001838 45 309 6.0 12.0 0.00 0.00 0.00 43 1007.9
20260506001419 45 320 5.0 9.0 0.00 0.00 0.00 43 1007.8
20260506000838 45 328 5.0 14.0 0.00 0.00 0.00 43 1007.7
20260506000323 45 349 7.0 16.0 0.00 0.00 0.00 42 1007.7
20260505235939 45 309 6.0 16.0 0.00 0.00 0.00 42 1007.7
20260505235343 46 317 7.0 13.0 0.00 0.00 0.00 42 1007.6
20260505234825 46 268 6.0 13.0 0.00 0.00 0.00 42 1007.6
20260505234348 46 309 5.0 15.0 0.00 0.00 0.00 42 1007.4
20260505233832 46 321 7.0 15.0 0.00 0.00 0.00 41 1007.4
20260505233414 46 302 5.0 13.0 0.00 0.00 0.00 42 1007.3
20260505232850 47 346 6.0 12.0 0.00 0.00 0.00 41 1007.3
20260505232414 47 307 3.0 9.0 0.00 0.00 0.00 41 1007.1
20260505231857 47 283 4.0 15.0 0.00 0.00 0.00 40 1007.1
20260505231323 47 293 8.0 15.0 0.00 0.00 0.00 40 1007.2
20260505230840 47 320 6.0 9.0 0.00 0.00 0.00 40 1007.1
20260505230417 48 294 3.0 8.0 0.00 0.00 0.00 42 1007.1
20260505225830 47 258 4.0 11.0 0.00 0.00 0.00 41 1007.1
20260505225334 47 312 5.0 12.0 0.00 0.00 0.00 41 1007.1
20260505224858 48 312 5.0 11.0 0.00 0.00 0.00 40 1007.0
20260505224358 47 300 4.0 12.0 0.00 0.00 0.00 40 1007.0
20260505223840 47 227 6.0 14.0 0.00 0.00 0.00 40 1006.9
20260505223424 48 286 7.0 14.0 0.00 0.00 0.00 39 1006.9
20260505222943 49 338 6.0 16.0 0.00 0.00 0.00 40 1006.8
20260505222340 48 307 6.0 16.0 0.00 0.00 0.00 40 1006.7
20260505221908 48 298 7.0 11.0 0.00 0.00 0.00 40 1006.7
20260505221343 48 328 5.0 14.0 0.00 0.00 0.00 41 1006.7
20260505220903 48 271 7.0 15.0 0.00 0.00 0.00 39 1006.7
20260505220339 48 315 5.0 15.0 0.00 0.00 0.00 40 1006.6
20260505215921 48 258 4.0 12.0 0.00 0.00 0.00 40 1006.6
20260505215342 48 296 6.0 12.0 0.00 0.00 0.00 40 1006.5
20260505214826 48 263 6.0 12.0 0.00 0.00 0.00 39 1006.5
20260505214411 48 309 6.0 17.0 0.00 0.00 0.00 39 1006.6
20260505213850 48 285 10.0 17.0 0.00 0.00 0.00 38 1006.5
20260505213330 48 177 6.0 14.0 0.00 0.00 0.00 38 1006.4
20260505212853 49 289 4.0 14.0 0.00 0.00 0.00 38 1006.4
20260505212401 48 312 6.0 13.0 0.00 0.00 0.00 38 1006.4
20260505211822 49 321 7.0 12.0 0.00 0.00 0.00 38 1006.5
20260505211344 49 293 6.0 12.0 0.00 0.00 0.00 37 1006.4
20260505210846 50 215 2.0 15.0 0.00 0.00 0.00 37 1006.2
20260505210409 50 312 9.0 15.0 0.00 0.00 0.00 36 1006.3
20260505205828 50 289 3.0 9.0 0.00 0.00 0.00 38 1006.2
20260505205339 49 241 4.0 15.0 0.00 0.00 0.00 39 1006.2
20260505204848 49 286 6.0 16.0 0.00 0.00 0.00 38 1006.2
20260505203938 49 305 6.0 14.0 0.00 0.00 0.00 40 1006.1
20260505203420 49 309 8.0 14.0 0.00 0.00 0.00 38 1006.2
20260505202845 49 299 7.0 16.0 0.00 0.00 0.00 37 1006.1
20260505202352 50 262 6.0 16.0 0.00 0.00 0.00 38 1006.1
20260505201915 49 298 8.0 23.0 0.00 0.00 0.00 38 1006.3
20260505201337 49 205 6.0 23.0 0.00 0.00 0.00 38 1006.2
20260505200905 49 247 6.0 16.0 0.00 0.00 0.00 39 1006.2
20260505200325 49 337 8.0 16.0 0.00 0.00 0.00 38 1006.2
20260505195845 48 56 9.0 15.0 0.00 0.00 0.00 39 1006.2
20260505195413 49 351 7.0 14.0 0.00 0.00 0.00 39 1006.1
20260505194937 49 326 9.0 15.0 0.00 0.00 0.00 38 1006.0
20260505194333 49 276 8.0 15.0 0.00 0.00 0.00 38 1005.9
20260505193859 50 291 8.0 13.0 0.00 0.00 0.00 37 1005.9
20260505193423 50 321 6.0 15.0 0.00 0.00 0.00 39 1005.8
20260505192839 50 253 5.0 14.0 0.00 0.00 0.00 38 1005.7
20260505192408 50 267 6.0 15.0 0.00 0.00 0.00 38 1005.7
20260505191831 49 309 6.0 17.0 0.00 0.00 0.00 37 1005.7
20260505191355 50 309 9.0 17.0 0.00 0.00 0.00 38 1005.6
20260505190914 50 312 7.0 14.0 0.00 0.00 0.00 38 1005.6
20260505190337 50 276 6.0 14.0 0.00 0.00 0.00 39 1005.7
20260505185854 50 288 5.0 13.0 0.00 0.00 0.00 38 1005.5
20260505185413 50 293 4.0 19.0 0.00 0.00 0.00 38 1005.5
20260505184839 50 308 6.0 19.0 0.00 0.00 0.00 39 1005.4
20260505184344 50 324 8.0 15.0 0.00 0.00 0.00 39 1005.4
20260505183848 50 276 5.0 12.0 0.00 0.00 0.00 40 1005.4
20260505182846 50 292 4.0 14.0 0.00 0.00 0.00 38 1005.3
20260505182412 50 305 4.0 17.0 0.00 0.00 0.00 40 1005.1
20260505181921 49 333 9.0 17.0 0.00 0.00 0.00 40 1005.2
20260505181439 49 257 6.0 16.0 0.00 0.00 0.00 39 1005.1
20260505180828 50 284 8.0 16.0 0.00 0.00 0.00 37 1005.0
20260505180350 49 310 5.0 15.0 0.00 0.00 0.00 39 1004.8
20260505175914 50 313 5.0 14.0 0.00 0.00 0.00 38 1005.0
20260505175419 51 311 7.0 14.0 0.00 0.00 0.00 37 1004.9
20260505174834 51 246 4.0 15.0 0.00 0.00 0.00 37 1004.7
20260505174357 51 300 5.0 16.0 0.00 0.00 0.00 39 1004.7
20260505173919 50 219 7.0 21.0 0.00 0.00 0.00 40 1004.7
20260505173335 49 323 10.0 21.0 0.00 0.00 0.00 38 1004.7
20260505172847 49 193 9.0 18.0 0.00 0.00 0.00 39 1004.6
20260505172410 49 288 8.0 16.0 0.00 0.00 0.00 39 1004.6
20260505171913 50 253 9.0 15.0 0.00 0.00 0.00 39 1004.6
20260505171328 50 336 6.0 13.0 0.00 0.00 0.00 41 1004.5
20260505170836 49 305 6.0 19.0 0.00 0.00 0.00 41 1004.4
20260505170405 49 320 10.0 19.0 0.00 0.00 0.00 39 1004.4
20260505165910 50 313 7.0 16.0 0.00 0.00 0.00 38 1004.4
20260505165328 49 281 7.0 16.0 0.00 0.00 0.00 42 1004.5
20260505164853 49 271 7.0 16.0 0.00 0.00 0.00 40 1004.5
20260505164413 49 281 6.0 13.0 0.00 0.00 0.00 41 1004.4
20260505163833 50 295 7.0 13.0 0.00 0.00 0.00 41 1004.5
20260505163355 50 302 5.0 13.0 0.00 0.00 0.00 39 1004.4
20260505162859 50 115 3.0 13.0 0.00 0.00 0.00 40 1004.3
20260505162408 50 295 6.0 11.0 0.00 0.00 0.00 39 1004.4
20260505161909 49 235 6.0 11.0 0.00 0.00 0.00 42 1004.4
20260505161427 48 283 6.0 14.0 0.00 0.00 0.00 42 1004.4
20260505160829 48 289 7.0 14.0 0.00 0.00 0.00 39 1004.4
20260505160340 49 319 3.0 11.0 0.00 0.00 0.00 42 1004.3
20260505152839 47 278 5.0 13.0 0.00 0.00 0.00 45 1004.6
20260505152347 48 248 4.0 17.0 0.00 0.00 0.00 46 1004.5
20260505151855 48 328 6.0 17.0 0.00 0.00 0.00 46 1004.6
20260505151407 48 312 6.0 17.0 0.00 0.00 0.00 45 1004.5
20260505150824 49 251 6.0 17.0 0.00 0.00 0.00 44 1004.6
20260505150446 48 299 4.0 9.0 0.00 0.00 0.00 44 1004.6
20260505140341 45 241 4.0 8.0 0.00 0.00 0.00 52 1004.7
20260505124841 40 304 3.0 6.0 0.00 0.00 0.00 62 1004.0
20260505124406 40 321 2.0 8.0 0.00 0.00 0.00 63 1003.9
20260505123915 40 320 3.0 8.0 0.00 0.00 0.00 63 1003.8
20260505123416 39 313 1.0 6.0 0.00 0.00 0.00 64 1003.8
20260505122832 39 316 2.0 6.0 0.00 0.00 0.00 65 1003.8
20260505122334 38 296 2.0 6.0 0.00 0.00 0.00 67 1003.7
20260505121847 38 325 2.0 6.0 0.00 0.00 0.00 68 1003.7
20260505121409 37 292 2.0 6.0 0.00 0.00 0.00 69 1003.8
20260505120855 36 285 1.0 4.0 0.00 0.00 0.00 71 1003.9
20260505120354 35 307 0.0 1.0 0.00 0.00 0.00 73 1003.9
20260505115916 35 305 0.0 1.0 0.00 0.00 0.00 74 1003.8
20260505115323 34 295 0.0 1.0 0.00 0.00 0.00 76 1003.8
20260505114846 33 295 0.0 1.0 0.00 0.00 0.00 78 1003.8
20260505114406 32 293 0.0 1.0 0.00 0.00 0.00 79 1003.8
20260505113827 30 294 0.0 0.0 0.00 0.00 0.00 81 1003.6
20260505113338 30 295 0.0 0.0 0.00 0.00 0.00 82 1003.7
20260505112904 29 295 0.0 0.0 0.00 0.00 0.00 82 1003.6
20260505112416 29 293 0.0 0.0 0.00 0.00 0.00 83 1003.6
20260505111842 29 295 0.0 0.0 0.00 0.00 0.00 82 1003.5
20260505110848 29 295 0.0 0.0 0.00 0.00 0.00 82 1003.3
20260505110414 29 294 0.0 0.0 0.00 0.00 0.00 82 1003.3
20260505101838 30 295 0.0 0.0 0.00 0.00 0.00 85 1003.0
20260505101406 30 295 0.0 0.0 0.00 0.00 0.00 84 1002.8
20260505100824 30 295 0.0 0.0 0.00 0.00 0.00 85 1002.7
20260505100348 30 295 0.0 0.0 0.00 0.00 0.00 84 1002.6
20260505095911 30 295 0.0 0.0 0.00 0.00 0.00 85 1002.6
20260505095336 30 293 0.0 0.0 0.00 0.00 0.00 84 1002.6
20260505094845 30 295 0.0 0.0 0.00 0.00 0.00 77 1002.6
20260505094409 31 293 0.0 0.0 0.00 0.00 0.00 76 1002.5
20260505093829 31 295 0.0 0.0 0.00 0.00 0.00 76 1002.4
20260505093357 31 293 0.0 0.0 0.00 0.00 0.00 78 1002.3
20260505092921 31 293 0.0 0.0 0.00 0.00 0.00 77 1002.2
20260505092346 31 294 0.0 0.0 0.00 0.00 0.00 78 1002.1
20260505091910 32 293 0.0 0.0 0.00 0.00 0.00 79 1001.9
20260505091329 32 293 0.0 0.0 0.00 0.00 0.00 78 1001.8
20260505090845 32 293 0.0 0.0 0.00 0.00 0.00 74 1001.8
20260505090349 33 293 0.0 0.0 0.00 0.00 0.00 72 1001.8
20260505085351 34 293 0.0 0.0 0.00 0.00 0.00 71 1001.7
20260505084852 35 293 0.0 0.0 0.00 0.00 0.00 69 1001.7
20260505084418 36 293 0.0 0.0 0.00 0.00 0.00 68 1001.6
20260505083920 36 293 0.0 0.0 0.00 0.00 0.00 69 1001.6
20260505083337 37 293 0.0 0.0 0.00 0.00 0.00 62 1001.6
20260505082905 37 293 0.0 1.0 0.00 0.00 0.00 60 1001.7
20260505082322 38 293 0.0 1.0 0.00 0.00 0.00 59 1001.7
20260505081844 38 293 0.0 1.0 0.00 0.00 0.00 57 1001.6
20260505081408 39 303 0.0 1.0 0.00 0.00 0.00 57 1001.6
20260505080915 39 304 0.0 2.0 0.00 0.00 0.00 56 1001.6
20260505080326 39 298 0.0 2.0 0.00 0.00 0.00 56 1001.6